{"data":{"norad_id":66998,"intl_designator":"2025-292F","name":"2025-292F","alt_names":[],"object_type":"PAYLOAD","status":"ACTIVE","operator":null,"country":"PRC","launch_date":"2025-12-10","launch_site_code":"JSC","launch_vehicle":null,"mission":null,"orbit_class":"UNKNOWN","rcs_meters":null,"size_class":null,"mass_kg":null,"dimensions":null,"purposes":[],"wikipedia_slug":null,"has_3d_model":false,"image_url":null,"decayed_at":null,"tle_current":{"epoch":"2026-09-20T19:08:45.168864Z","epoch_age_seconds":86348,"freshness":"FRESH","line1":"1 66998U 25292F   26263.79774501  .00002410  00000+0  16332-3 0  9991","line2":"2 66998  97.6278 338.9168 0015220  45.1741 315.0720 15.07330941 42859","mean_motion":15.07330941,"eccentricity":0.001522,"inclination_deg":97.6278,"raan_deg":338.9168,"arg_perigee_deg":45.1741,"mean_anomaly_deg":315.072,"bstar":0.00016332,"rev_number":4285,"period_min":95.533101645526,"perigee_km":533.82378625247,"apogee_km":554.8958665921,"semimajor_km":6922.4968264223,"source":"CELESTRAK","updated_at":"2026-09-21T09:00:16.366028Z"}}}